Weather History for 03973 - December, 2012

Change the Weather History Date:

Friday, December 7, 2012

  Actual Average Record
Temperature  
Mean Temperature 40 °F -  
Max Temperature 44 °F - - ()
Min Temperature 36 °F - - ()
Degree Days  
Heating Degree Days 25    
Moisture  
Dew Point 36 °F    
Average Humidity 80    
Maximum Humidity 93    
Minimum Humidity 66    
Precipitation  
Precipitation 0.03 in - - ()
Sea Level Pressure  
Sea Level Pressure 29.98 in    
Wind  
Wind Speed 14 mph ()    
Max Wind Speed 23 mph    
Max Gust Speed 37 mph    
Visibility 7.3 miles    
Events Rain    
T = Trace of Precipitation, MM = Missing Value Source: Averaged Metar Reports

Daily Weather History Graph

Daily Weather History Graph

Search for Another Location

Airport or City:

Trip Planner

Search our weather history database for the weather conditions in past years. The results will help you decide how hot, cold, wet, or windy it might be!

Date:

Astronomy

Dec. 07, 2012 Rise Set
Actual Time 8:39 AM GMT 4:14 PM GMT
Civil Twilight 7:56 AM GMT 4:57 PM GMT
Nautical Twilight 7:10 AM GMT 5:42 PM GMT
Astronomical Twilight 6:27 AM GMT 6:25 PM GMT
Moon 12:50 AM GMT (12/7) 12:53 PM GMT (12/7)
Length of Visible Light 9h 00m
Length of Day
7h 35m
Last Quarter, 41% of the Moon is Illuminated
Dec 7
Last Quarter
Dec 13
New
Dec 20
First Quarter
Dec 28
Full
Jan 5
Last Quarter

Hourly Weather History & Observations

Time (GMT) Temp. Windchill Dew Point Humidity Pressure Visibility Wind Dir Wind Speed Gust Speed Precip Events Conditions
12:00 AM 38 °F - 36 °F 92% 29.66 in - NW 15.7 mph - -  
6:00 AM 39 °F - 32 °F 66% 29.86 in 19 mi NW 13.4 mph - -   Partly Cloudy
8:00 AM 39.2 °F 30.2 °F 33.8 °F 81% 29.89 in 6.2 mi NNW 17.3 mph - N/A   Partly Cloudy
8:30 AM 41.0 °F 33.5 °F 33.8 °F 76% 29.89 in 6.2 mi NW 13.8 mph - N/A   Scattered Clouds
9:00 AM 41.0 °F 33.9 °F 35.6 °F 81% 29.89 in 6.2 mi NW 12.7 mph - N/A Rain Light Rain Showers
9:30 AM 39.2 °F 29.8 °F 37.4 °F 93% 29.92 in 6.2 mi NW 18.4 mph - N/A   Partly Cloudy
10:00 AM 41.0 °F 31.4 °F 37.4 °F 87% 29.92 in 6.2 mi NNW 21.9 mph - N/A   Partly Cloudy
10:30 AM 42.8 °F 33.5 °F 37.4 °F 81% 29.92 in 6.2 mi NNW 23.0 mph - N/A   Scattered Clouds
11:00 AM 42.8 °F 34.0 °F 37.4 °F 81% 29.95 in 6.2 mi NNW 20.7 mph 34.5 mph N/A   Partly Cloudy
11:30 AM 42.8 °F 33.5 °F 37.4 °F 81% 29.95 in 6.2 mi NNW 23.0 mph 36.8 mph N/A Rain Light Rain Showers
12:00 PM 43 °F - 36 °F 68% 30.01 in 22 mi NNW 17.9 mph - - Rain Light Rain Showers
12:00 PM 42.8 °F 34.5 °F 35.6 °F 76% 29.98 in 6.2 mi NNW 18.4 mph - N/A   Partly Cloudy
12:30 PM 44.6 °F 37.2 °F 37.4 °F 76% 30.01 in 6.2 mi NNW 17.3 mph 28.8 mph N/A   Scattered Clouds
1:00 PM 42.8 °F 34.3 °F 35.6 °F 76% 30.01 in 6.2 mi NNW 19.6 mph 31.1 mph N/A   Partly Cloudy
1:30 PM 44.6 °F 37.8 °F 37.4 °F 76% 30.01 in 6.2 mi North 15.0 mph 27.6 mph N/A   Scattered Clouds
2:00 PM 44.6 °F 38.4 °F 37.4 °F 76% 30.04 in 6.2 mi NNW 12.7 mph - N/A   Scattered Clouds
2:30 PM 42.8 °F 37.0 °F 35.6 °F 76% 30.04 in 6.2 mi NNW 10.4 mph - N/A   Partly Cloudy
3:00 PM 42.8 °F 37.5 °F 35.6 °F 76% 30.06 in 6.2 mi NNW 9.2 mph - N/A   Scattered Clouds
3:30 PM 42.8 °F 38.0 °F 35.6 °F 76% 30.06 in 6.2 mi NW 8.1 mph - N/A   Partly Cloudy
4:00 PM 41.0 °F 34.7 °F 35.6 °F 81% 30.09 in 6.2 mi NW 10.4 mph - N/A   Partly Cloudy
4:30 PM 41.0 °F 34.3 °F 35.6 °F 81% 30.09 in 6.2 mi NNW 11.5 mph - N/A   Partly Cloudy
5:00 PM 39.2 °F 32.0 °F 37.4 °F 93% 30.12 in 6.2 mi NNW 11.5 mph 25.3 mph N/A   Partly Cloudy
6:00 PM 39 °F - 36 °F 84% 30.19 in 16 mi NW 8.9 mph - -   Partly Cloudy